SL-12 R/B(2)

基本信息
目录编号:
26583
目录名称:
SL-12 R/B(2)
国际标识:
2000-067D
轨道中心:
EARTH
物体状态:
在轨
发射日期:
2000-10-21 UTC
国别:
俄罗斯(独联体) (CIS)
轨道信息
数据来源: 国际轨道数据
星历时间: 2026-07-13T11:28:31+0800
半长轴: 27169.357km
偏心率: 0.5547501
轨道倾角: 17.677°
近地点辐角: 24.426°
升交点赤经: 265.781°
平近点角: 354.073°
近地点: 5719.016km
远地点: 35863.424km
周期: 742.812分钟
每日圈数: 1.93858
详细信息
发射场:
TTMTR
轨道高度:
MEO
数据来源:
AOE Integration Group
参考系:
TEME
时间系统:
UTC
历元类型:
SGP4
2D轨道图
3D轨道图
轨道高度分析图
轨道倾角分析图
轨道综合分析图
查看轨道综合分析图